Terminal Aerodrome Forecast
Issued by NWS Nashville, TN

Home | Current Version | Previous Version | Text Only | Print | Product List | Glossary On
Versions: 1 2 3 4 5 6 7 8 9 10 11 12 13 14 15 16 17 18 19 20
000
FTUS44 KOHX 051557 AAB
TAFBNA
TAF AMD
KBNA 051557Z 0516/0612 33015G26KT P6SM BKN030 OVC045
     FM052200 34012G20KT P6SM BKN050
     FM060200 33009KT P6SM BKN050
     FM060600 32007KT P6SM SKC=

USA.gov is the U.S. government's official web portal to all federal, state and local government web resources and services.